LNR032 LFMD-LFOZ

Flight info

Callsign LNR032
Flight time N/A
Altitude 16000
Route STP DCT CUERS DCT GEMKO DCT POMEG G7 MTG DCT ITR DCT NG DCT MEN DCT MINPA A27 CFA DCT LEMIN DCT LFOQ
Aircraft B36T/L-SBDFGLORY/S

Departure

Time 2026-04-19 06:22
Airport Cannes Mandelieu Airport (LFMD)

Arrival

Time N/A
Airport Orléans–Saint-Denis-de-l'Hôtel Airport (LFOZ)
Time Latitude Longitude Altitude Speed Heading
2026-04-19 06:11 43.54820 6.95792 13 ft 0 kts 225°
2026-04-19 06:16 43.54807 6.95787 13 ft 2 kts 149°
2026-04-19 06:16 43.54802 6.95793 13 ft 6 kts 142°
2026-04-19 06:16 43.54771 6.95763 13 ft 14 kts 226°
2026-04-19 06:16 43.54709 6.95677 13 ft 8 kts 228°
2026-04-19 06:17 43.54662 6.95611 13 ft 15 kts 224°
2026-04-19 06:17 43.54586 6.95504 14 ft 8 kts 216°
2026-04-19 06:17 43.54549 6.95518 14 ft 6 kts 186°
2026-04-19 06:17 43.54522 6.95484 15 ft 5 kts 225°
2026-04-19 06:18 43.54481 6.95427 16 ft 11 kts 225°
2026-04-19 06:18 43.54436 6.95364 17 ft 8 kts 225°
2026-04-19 06:18 43.54445 6.95317 19 ft 10 kts 354°
2026-04-19 06:18 43.54535 6.95303 18 ft 18 kts 352°
2026-04-19 06:19 43.54666 6.95281 15 ft 16 kts 351°
2026-04-19 06:19 43.54780 6.95259 15 ft 17 kts 351°
2026-04-19 06:19 43.54867 6.95243 14 ft 7 kts 353°
2026-04-19 06:19 43.54948 6.95228 11 ft 18 kts 352°
2026-04-19 06:20 43.55055 6.95207 11 ft 18 kts 351°
2026-04-19 06:20 43.55192 6.95185 14 ft 13 kts 354°
2026-04-19 06:20 43.55306 6.95170 14 ft 24 kts 355°
2026-04-19 06:20 43.55394 6.95125 16 ft 4 kts 284°
2026-04-19 06:21 43.55392 6.95052 18 ft 8 kts 263°
2026-04-19 06:21 43.55370 6.94990 18 ft 9 kts 191°
2026-04-19 06:21 43.55217 6.95015 12 ft 52 kts 172°
2026-04-19 06:21 43.54605 6.95127 105 ft 109 kts 171°
2026-04-19 06:22 43.53829 6.95297 559 ft 111 kts 172°
2026-04-19 06:22 43.53086 6.95414 1086 ft 111 kts 174°
2026-04-19 06:22 43.52295 6.95445 1477 ft 116 kts 179°
2026-04-19 06:22 43.51448 6.95309 1859 ft 133 kts 189°
2026-04-19 06:23 43.50508 6.95341 2486 ft 136 kts 176°
2026-04-19 06:23 43.49552 6.95451 3075 ft 140 kts 179°
2026-04-19 06:23 43.48573 6.95502 3710 ft 139 kts 182°
2026-04-19 06:23 43.47608 6.95352 4276 ft 143 kts 201°
2026-04-19 06:24 43.46724 6.94692 4771 ft 148 kts 224°
2026-04-19 06:24 43.45985 6.93640 5134 ft 156 kts 236°
2026-04-19 06:24 43.45633 6.92238 5531 ft 157 kts 260°
2026-04-19 06:24 43.45409 6.90764 5946 ft 156 kts 259°
2026-04-19 06:25 43.45172 6.89302 6395 ft 157 kts 259°
2026-04-19 06:25 43.44933 6.87829 6820 ft 157 kts 259°
2026-04-19 06:25 43.44698 6.86397 7218 ft 157 kts 259°
2026-04-19 06:25 43.44455 6.84901 7535 ft 164 kts 259°
2026-04-19 06:26 43.44204 6.83345 7830 ft 167 kts 259°
2026-04-19 06:26 43.43804 6.81830 8127 ft 174 kts 236°
2026-04-19 06:26 43.42837 6.80797 8425 ft 179 kts 216°
2026-04-19 06:26 43.41782 6.79874 8652 ft 182 kts 218°
2026-04-19 06:27 43.40751 6.78871 8860 ft 181 kts 220°
2026-04-19 06:27 43.39735 6.77855 9064 ft 181 kts 220°
2026-04-19 06:27 43.38716 6.76833 9268 ft 181 kts 220°
2026-04-19 06:27 43.37694 6.75817 9475 ft 181 kts 220°
2026-04-19 06:28 43.36689 6.74817 9677 ft 180 kts 220°
2026-04-19 06:28 43.35678 6.73811 9884 ft 178 kts 220°
2026-04-19 06:28 43.34671 6.72814 10077 ft 177 kts 220°
2026-04-19 06:28 43.33692 6.71835 10262 ft 172 kts 220°
2026-04-19 06:29 43.32727 6.70876 10450 ft 169 kts 220°
2026-04-19 06:29 43.31765 6.69920 10582 ft 174 kts 220°
2026-04-19 06:29 43.30755 6.68906 10582 ft 183 kts 220°
2026-04-19 06:29 43.29730 6.67885 10584 ft 185 kts 220°
2026-04-19 06:30 43.28674 6.66845 10589 ft 187 kts 220°
2026-04-19 06:30 43.27617 6.65796 10593 ft 187 kts 220°
2026-04-19 06:30 43.26558 6.64743 10593 ft 189 kts 220°
2026-04-19 06:30 43.25492 6.63686 10593 ft 189 kts 220°
2026-04-19 06:31 43.24428 6.62630 10592 ft 189 kts 220°
2026-04-19 06:31 43.23373 6.61586 10581 ft 189 kts 220°
2026-04-19 06:31 43.22474 6.60306 10577 ft 185 kts 242°
2026-04-19 06:31 43.22029 6.58680 10574 ft 182 kts 262°
2026-04-19 06:32 43.22005 6.56945 10581 ft 182 kts 272°
2026-04-19 06:32 43.22035 6.55209 10584 ft 182 kts 271°
2026-04-19 06:32 43.22059 6.53477 10580 ft 181 kts 271°
2026-04-19 06:32 43.22086 6.51767 10586 ft 182 kts 272°
2026-04-19 06:33 43.22113 6.50039 10585 ft 182 kts 271°
2026-04-19 06:33 43.22139 6.48305 10584 ft 181 kts 271°
2026-04-19 06:33 43.22166 6.46573 10584 ft 182 kts 271°
2026-04-19 06:33 43.22192 6.44839 10581 ft 181 kts 271°
2026-04-19 06:34 43.22217 6.43113 10579 ft 181 kts 271°
2026-04-19 06:34 43.22241 6.41389 10580 ft 181 kts 271°
2026-04-19 06:34 43.22266 6.39684 10580 ft 181 kts 271°
2026-04-19 06:34 43.22292 6.37963 10581 ft 181 kts 271°
2026-04-19 06:35 43.22317 6.36232 10583 ft 182 kts 271°
2026-04-19 06:35 43.22339 6.34529 10765 ft 174 kts 271°
2026-04-19 06:35 43.22359 6.32892 11056 ft 168 kts 272°
2026-04-19 06:35 43.22382 6.31267 11347 ft 173 kts 272°
2026-04-19 06:36 43.22407 6.29605 11643 ft 175 kts 272°
2026-04-19 06:36 43.22428 6.27931 11947 ft 176 kts 272°
2026-04-19 06:36 43.22452 6.26258 12242 ft 179 kts 272°
2026-04-19 06:36 43.22473 6.24547 12552 ft 180 kts 272°
2026-04-19 06:37 43.22498 6.22822 12862 ft 181 kts 272°
2026-04-19 06:37 43.22519 6.21093 13176 ft 181 kts 272°
2026-04-19 06:37 43.22541 6.19358 13490 ft 182 kts 272°
2026-04-19 06:37 43.22563 6.17621 13808 ft 182 kts 272°
2026-04-19 06:38 43.22585 6.15891 14090 ft 181 kts 272°
2026-04-19 06:38 43.22606 6.14183 14370 ft 181 kts 272°
2026-04-19 06:38 43.22691 6.12461 14656 ft 180 kts 278°
2026-04-19 06:38 43.22836 6.10739 14946 ft 183 kts 277°
2026-04-19 06:39 43.22972 6.09003 15240 ft 184 kts 277°
2026-04-19 06:39 43.23110 6.07245 15532 ft 185 kts 277°
2026-04-19 06:39 43.23249 6.05489 15832 ft 186 kts 277°
2026-04-19 06:39 43.23390 6.03722 16135 ft 186 kts 277°
2026-04-19 06:40 43.23529 6.01952 16440 ft 187 kts 277°
2026-04-19 06:40 43.23670 6.00176 16746 ft 187 kts 277°
2026-04-19 06:40 43.23933 5.98445 17056 ft 187 kts 296°
2026-04-19 06:40 43.24887 5.97255 17363 ft 192 kts 329°
2026-04-19 06:41 43.26088 5.96455 17686 ft 191 kts 326°
2026-04-19 06:41 43.27197 5.95467 18006 ft 190 kts 321°
2026-04-19 06:41 43.28255 5.94419 18335 ft 190 kts 320°
2026-04-19 06:41 43.29332 5.93357 18575 ft 193 kts 320°
2026-04-19 06:42 43.30464 5.92249 18581 ft 204 kts 320°
2026-04-19 06:42 43.31644 5.91100 18589 ft 211 kts 320°
2026-04-19 06:42 43.32848 5.89925 18592 ft 214 kts 320°
2026-04-19 06:42 43.34072 5.88724 18590 ft 217 kts 320°
2026-04-19 06:43 43.35291 5.87532 18592 ft 218 kts 320°
2026-04-19 06:43 43.36537 5.86314 18595 ft 215 kts 320°
2026-04-19 06:43 43.37746 5.85130 18594 ft 213 kts 320°
2026-04-19 06:43 43.38940 5.83957 18594 ft 214 kts 320°
2026-04-19 06:44 43.40150 5.82769 18587 ft 214 kts 320°
2026-04-19 06:44 43.41360 5.81582 18587 ft 213 kts 320°
2026-04-19 06:44 43.42569 5.80396 18586 ft 213 kts 320°
2026-04-19 06:44 43.43775 5.79212 18586 ft 212 kts 320°
2026-04-19 06:45 43.44980 5.78024 18591 ft 211 kts 320°
2026-04-19 06:45 43.46154 5.76870 18591 ft 210 kts 320°
2026-04-19 06:45 43.47343 5.75705 18589 ft 209 kts 320°
2026-04-19 06:45 43.48278 5.74784 18588 ft 208 kts 320°
2026-04-19 06:46 43.49453 5.73628 18596 ft 206 kts 320°
2026-04-19 06:46 43.50618 5.72478 18595 ft 206 kts 320°
2026-04-19 06:46 43.51783 5.71332 18594 ft 205 kts 320°
2026-04-19 06:46 43.52944 5.70188 18590 ft 204 kts 319°
2026-04-19 06:47 43.54099 5.69048 18591 ft 204 kts 320°
2026-04-19 06:47 43.55235 5.67925 18592 ft 203 kts 319°
2026-04-19 06:47 43.56384 5.66791 18590 ft 203 kts 319°
2026-04-19 06:47 43.57531 5.65658 18590 ft 203 kts 319°
2026-04-19 06:48 43.58677 5.64525 18590 ft 202 kts 319°
2026-04-19 06:48 43.59822 5.63393 18588 ft 202 kts 319°
2026-04-19 06:48 43.60964 5.62263 18588 ft 202 kts 319°
2026-04-19 06:48 43.62108 5.61129 18592 ft 202 kts 319°
2026-04-19 06:49 43.63255 5.59995 18593 ft 203 kts 319°
2026-04-19 06:49 43.64400 5.58861 18594 ft 203 kts 319°
2026-04-19 06:49 43.65550 5.57720 18594 ft 203 kts 319°
2026-04-19 06:49 43.66697 5.56582 18594 ft 203 kts 319°
2026-04-19 06:50 43.67834 5.55454 18595 ft 203 kts 319°
2026-04-19 06:50 43.68982 5.54314 18594 ft 203 kts 319°
2026-04-19 06:50 43.70144 5.53160 18601 ft 203 kts 319°
2026-04-19 06:50 43.71279 5.52032 18598 ft 203 kts 319°
2026-04-19 06:51 43.72423 5.50895 18601 ft 202 kts 319°
2026-04-19 06:51 43.73567 5.49757 18602 ft 202 kts 319°
2026-04-19 06:51 43.74708 5.48621 18601 ft 202 kts 319°
2026-04-19 06:51 43.75852 5.47483 18598 ft 202 kts 319°
2026-04-19 06:52 43.76991 5.46349 18598 ft 202 kts 319°
2026-04-19 06:52 43.78131 5.45212 18598 ft 202 kts 319°
2026-04-19 06:52 43.79275 5.44072 18598 ft 202 kts 319°
2026-04-19 06:52 43.80413 5.42936 18598 ft 201 kts 319°
2026-04-19 06:53 43.81552 5.41806 18593 ft 202 kts 319°
2026-04-19 06:53 43.82691 5.40663 18593 ft 202 kts 318°
2026-04-19 06:53 43.83830 5.39524 18593 ft 202 kts 319°
2026-04-19 06:53 43.84972 5.38382 18592 ft 202 kts 318°
2026-04-19 06:54 43.86099 5.37255 18596 ft 202 kts 319°
2026-04-19 06:54 43.87243 5.36113 18601 ft 202 kts 319°
2026-04-19 06:54 43.88384 5.34970 18601 ft 202 kts 319°
2026-04-19 06:54 43.89528 5.33825 18601 ft 202 kts 319°
2026-04-19 06:55 43.90667 5.32683 18601 ft 202 kts 318°
2026-04-19 06:55 43.91797 5.31551 18596 ft 203 kts 318°
2026-04-19 06:55 43.92945 5.30400 18596 ft 203 kts 318°
2026-04-19 06:55 43.94088 5.29252 18595 ft 203 kts 318°
2026-04-19 06:56 43.95233 5.28104 18594 ft 203 kts 318°
2026-04-19 06:56 43.96374 5.26956 18598 ft 203 kts 318°
2026-04-19 06:56 43.97523 5.25802 18596 ft 203 kts 318°
2026-04-19 06:56 43.98665 5.24654 18595 ft 203 kts 318°
2026-04-19 06:57 43.99807 5.23506 18599 ft 203 kts 318°
2026-04-19 06:57 44.00952 5.22355 18601 ft 203 kts 318°
2026-04-19 06:57 44.02083 5.21215 18601 ft 203 kts 318°
2026-04-19 06:57 44.03231 5.20061 18598 ft 203 kts 319°
2026-04-19 06:58 44.04214 5.18726 18495 ft 192 kts 297°
2026-04-19 06:58 44.04559 5.17124 18047 ft 161 kts 278°
2026-04-19 06:58 44.04803 5.15551 17587 ft 177 kts 286°
2026-04-19 06:58 44.05283 5.13864 17149 ft 196 kts 292°
2026-04-19 06:59 44.05866 5.12121 16726 ft 199 kts 293°
2026-04-19 06:59 44.06447 5.10381 16303 ft 198 kts 292°
2026-04-19 06:59 44.07007 5.08667 15875 ft 193 kts 292°
2026-04-19 06:59 44.07551 5.06984 15459 ft 193 kts 293°
2026-04-19 07:00 44.08102 5.05289 15040 ft 192 kts 293°
2026-04-19 07:00 44.08656 5.03591 14632 ft 192 kts 294°
2026-04-19 07:00 44.09206 5.01898 14236 ft 191 kts 294°
2026-04-19 07:00 44.09755 5.00212 13825 ft 191 kts 294°
2026-04-19 07:01 44.10301 4.98530 13378 ft 191 kts 294°
2026-04-19 07:01 44.10662 4.97421 13085 ft 190 kts 294°
2026-04-19 07:01 44.11205 4.95748 12644 ft 187 kts 294°
2026-04-19 07:01 44.11907 4.93584 12064 ft 184 kts 294°
2026-04-19 07:02 44.12429 4.91966 11643 ft 183 kts 294°
2026-04-19 07:02 44.12961 4.90358 11218 ft 183 kts 295°
2026-04-19 07:02 44.13303 4.89287 10944 ft 183 kts 294°
2026-04-19 07:02 44.13814 4.87666 10546 ft 183 kts 295°
2026-04-19 07:03 44.14336 4.86061 10139 ft 182 kts 295°
2026-04-19 07:03 44.14857 4.84468 9711 ft 181 kts 295°
2026-04-19 07:03 44.15374 4.82865 9265 ft 181 kts 295°
2026-04-19 07:03 44.15891 4.81264 8829 ft 181 kts 295°
2026-04-19 07:04 44.16409 4.79657 8399 ft 182 kts 295°
2026-04-19 07:04 44.16921 4.78069 7979 ft 177 kts 295°
2026-04-19 07:04 44.17421 4.76515 7556 ft 175 kts 296°
2026-04-19 07:04 44.17923 4.74958 7143 ft 176 kts 296°
2026-04-19 07:05 44.18426 4.73395 6717 ft 179 kts 296°
2026-04-19 07:05 44.18925 4.71827 6594 ft 171 kts 296°
2026-04-19 07:05 44.19402 4.70346 6594 ft 172 kts 296°
2026-04-19 07:05 44.19900 4.68798 6596 ft 178 kts 296°
2026-04-19 07:06 44.20416 4.67199 6600 ft 182 kts 296°
2026-04-19 07:06 44.20940 4.65574 6603 ft 185 kts 296°
2026-04-19 07:06 44.21469 4.63945 6597 ft 183 kts 296°
2026-04-19 07:06 44.21990 4.62321 6595 ft 183 kts 296°
2026-04-19 07:07 44.22507 4.60699 6594 ft 184 kts 296°
2026-04-19 07:07 44.23023 4.59069 6597 ft 184 kts 295°
2026-04-19 07:07 44.23542 4.57435 6593 ft 184 kts 296°
2026-04-19 07:07 44.24068 4.55814 6597 ft 184 kts 295°
2026-04-19 07:08 44.24590 4.54185 6593 ft 183 kts 295°
2026-04-19 07:08 44.25107 4.52559 6593 ft 183 kts 295°
2026-04-19 07:08 44.25621 4.50953 6593 ft 183 kts 295°
2026-04-19 07:08 44.26140 4.49323 6593 ft 183 kts 295°
2026-04-19 07:09 44.26658 4.47698 6595 ft 183 kts 295°
2026-04-19 07:09 44.27177 4.46068 6600 ft 184 kts 295°
2026-04-19 07:09 44.27698 4.44434 6597 ft 184 kts 295°
2026-04-19 07:09 44.28217 4.42800 6596 ft 184 kts 295°
2026-04-19 07:10 44.28734 4.41166 6600 ft 183 kts 295°
2026-04-19 07:10 44.29254 4.39538 6598 ft 183 kts 295°
2026-04-19 07:10 44.29771 4.37914 6601 ft 183 kts 295°
2026-04-19 07:10 44.30288 4.36286 6603 ft 184 kts 295°
2026-04-19 07:11 44.30799 4.34668 6607 ft 186 kts 295°
2026-04-19 07:11 44.31325 4.33007 6608 ft 187 kts 295°
2026-04-19 07:11 44.31852 4.31346 6607 ft 187 kts 295°
2026-04-19 07:11 44.32375 4.29689 6609 ft 187 kts 295°
2026-04-19 07:12 44.32903 4.28026 6608 ft 187 kts 295°
2026-04-19 07:12 44.33431 4.26357 6611 ft 188 kts 295°
2026-04-19 07:12 44.33957 4.24692 6618 ft 188 kts 295°
2026-04-19 07:12 44.34480 4.23033 6613 ft 185 kts 295°
2026-04-19 07:13 44.34996 4.21400 6613 ft 183 kts 295°
2026-04-19 07:13 44.35509 4.19775 6610 ft 182 kts 295°
2026-04-19 07:13 44.36014 4.18159 6605 ft 181 kts 295°
2026-04-19 07:13 44.36519 4.16562 6605 ft 180 kts 295°
2026-04-19 07:14 44.37021 4.14972 6606 ft 178 kts 295°
2026-04-19 07:14 44.37518 4.13394 6613 ft 176 kts 295°
2026-04-19 07:14 44.38005 4.11848 6611 ft 176 kts 295°
2026-04-19 07:14 44.38493 4.10275 6620 ft 177 kts 295°
2026-04-19 07:15 44.38992 4.08702 6627 ft 176 kts 295°
2026-04-19 07:15 44.39482 4.07141 6608 ft 173 kts 294°
2026-04-19 07:15 44.40458 4.04023 6615 ft 176 kts 295°
2026-04-19 07:16 44.40949 4.02467 6636 ft 175 kts 295°
2026-04-19 07:16 44.41440 4.00898 6636 ft 178 kts 294°
2026-04-19 07:16 44.41936 3.99311 6633 ft 177 kts 294°
2026-04-19 07:16 44.42419 3.97763 6633 ft 175 kts 295°
2026-04-19 07:17 44.42911 3.96201 6644 ft 175 kts 294°
2026-04-19 07:17 44.43397 3.94638 6646 ft 174 kts 295°
2026-04-19 07:17 44.43883 3.93074 6643 ft 175 kts 295°
2026-04-19 07:17 44.44372 3.91503 6641 ft 176 kts 295°
2026-04-19 07:18 44.44864 3.89928 6642 ft 176 kts 295°
2026-04-19 07:18 44.45359 3.88348 6643 ft 178 kts 295°
2026-04-19 07:18 44.45857 3.86748 6640 ft 180 kts 295°
2026-04-19 07:18 44.46342 3.85170 6638 ft 178 kts 295°
2026-04-19 07:19 44.46842 3.83585 6645 ft 179 kts 295°
2026-04-19 07:19 44.47334 3.81995 6646 ft 177 kts 295°
2026-04-19 07:19 44.47825 3.80405 6649 ft 179 kts 294°
2026-04-19 07:19 44.48327 3.78789 6646 ft 181 kts 294°
2026-04-19 07:20 44.48829 3.77171 6642 ft 181 kts 294°
2026-04-19 07:20 44.49331 3.75554 6646 ft 181 kts 294°
2026-04-19 07:20 44.49828 3.73954 6645 ft 181 kts 294°
2026-04-19 07:20 44.50336 3.72337 6645 ft 182 kts 294°
2026-04-19 07:21 44.50839 3.70703 6637 ft 181 kts 294°
2026-04-19 07:21 44.51332 3.69082 6644 ft 181 kts 294°
2026-04-19 07:21 44.51834 3.67460 6648 ft 181 kts 294°
2026-04-19 07:21 44.52336 3.65846 6647 ft 181 kts 293°
2026-04-19 07:22 44.52830 3.64227 6648 ft 180 kts 294°
2026-04-19 07:22 44.53328 3.62619 6646 ft 181 kts 294°
2026-04-19 07:22 44.53822 3.61019 6646 ft 181 kts 294°
2026-04-19 07:22 44.54322 3.59407 6646 ft 181 kts 294°
2026-04-19 07:23 44.54822 3.57778 6647 ft 181 kts 294°
2026-04-19 07:23 44.55320 3.56155 6651 ft 182 kts 293°
2026-04-19 07:23 44.55821 3.54530 6650 ft 181 kts 293°
2026-04-19 07:23 44.56313 3.52911 6654 ft 181 kts 294°
2026-04-19 07:24 44.56814 3.51296 6644 ft 180 kts 294°
2026-04-19 07:24 44.57307 3.49698 6659 ft 178 kts 294°
2026-04-19 07:24 44.57798 3.48093 6657 ft 180 kts 294°
2026-04-19 07:24 44.58286 3.46499 6658 ft 180 kts 293°
2026-04-19 07:25 44.58780 3.44880 6661 ft 180 kts 294°
2026-04-19 07:25 44.59272 3.43261 6668 ft 181 kts 294°
2026-04-19 07:25 44.59774 3.41640 6662 ft 180 kts 294°
2026-04-19 07:25 44.60272 3.40017 6661 ft 182 kts 294°
2026-04-19 07:26 44.60767 3.38391 6661 ft 181 kts 293°
2026-04-19 07:26 44.61262 3.36767 6662 ft 181 kts 294°
2026-04-19 07:26 44.61758 3.35139 6660 ft 180 kts 294°
2026-04-19 07:26 44.62253 3.33522 6661 ft 180 kts 294°
2026-04-19 07:27 44.62746 3.31909 6655 ft 180 kts 293°
2026-04-19 07:27 44.63237 3.30292 6657 ft 179 kts 294°
2026-04-19 07:27 44.63722 3.28701 6655 ft 180 kts 294°
2026-04-19 07:27 44.64210 3.27091 6654 ft 179 kts 294°
2026-04-19 07:28 44.64699 3.25486 6658 ft 179 kts 294°
2026-04-19 07:28 44.65192 3.23867 6659 ft 181 kts 293°
2026-04-19 07:28 44.65682 3.22246 6661 ft 180 kts 294°
2026-04-19 07:28 44.66172 3.20626 6663 ft 180 kts 293°
2026-04-19 07:29 44.66664 3.19012 6659 ft 179 kts 293°
2026-04-19 07:29 44.67152 3.17406 6662 ft 179 kts 293°
2026-04-19 07:29 44.67638 3.15794 6659 ft 179 kts 293°
2026-04-19 07:29 44.68126 3.14187 6658 ft 179 kts 293°
2026-04-19 07:30 44.68617 3.12578 6659 ft 179 kts 294°
2026-04-19 07:30 44.69103 3.10970 6662 ft 179 kts 293°
2026-04-19 07:30 44.69583 3.09359 6660 ft 179 kts 293°
2026-04-19 07:30 44.70070 3.07743 6664 ft 179 kts 293°
2026-04-19 07:31 44.70559 3.06131 6662 ft 180 kts 293°
2026-04-19 07:31 44.71048 3.04511 6660 ft 180 kts 292°
2026-04-19 07:31 44.71538 3.02888 6660 ft 180 kts 292°
2026-04-19 07:31 44.72021 3.01280 6663 ft 180 kts 292°
2026-04-19 07:32 44.72509 2.99651 6662 ft 181 kts 292°
2026-04-19 07:32 44.73010 2.98022 6663 ft 181 kts 293°
2026-04-19 07:32 44.73504 2.96393 6662 ft 180 kts 292°
2026-04-19 07:32 44.73980 2.94763 6661 ft 180 kts 292°
2026-04-19 07:33 44.74457 2.93165 6661 ft 180 kts 292°
2026-04-19 07:33 44.74947 2.91545 6662 ft 180 kts 292°
2026-04-19 07:33 44.75435 2.89916 6658 ft 181 kts 292°
2026-04-19 07:33 44.75922 2.88282 6658 ft 182 kts 292°
2026-04-19 07:34 44.76418 2.86628 6656 ft 183 kts 292°
2026-04-19 07:34 44.76913 2.84979 6655 ft 183 kts 292°
2026-04-19 07:34 44.77401 2.83349 6657 ft 183 kts 292°
2026-04-19 07:34 44.77896 2.81690 6657 ft 183 kts 292°
2026-04-19 07:35 44.78395 2.80037 6664 ft 183 kts 292°
2026-04-19 07:35 44.78888 2.78380 6666 ft 183 kts 292°
2026-04-19 07:35 44.79376 2.76724 6650 ft 184 kts 292°
2026-04-19 07:35 44.79861 2.75099 6392 ft 174 kts 292°
2026-04-19 07:36 44.80316 2.73555 6138 ft 169 kts 292°
2026-04-19 07:36 44.80771 2.72020 5885 ft 171 kts 292°
2026-04-19 07:36 44.81237 2.70471 5635 ft 173 kts 293°
2026-04-19 07:36 44.81705 2.68890 5387 ft 176 kts 292°
2026-04-19 07:37 44.82177 2.67305 5144 ft 176 kts 293°
2026-04-19 07:37 44.82650 2.65714 4897 ft 176 kts 293°
2026-04-19 07:37 44.83122 2.64123 4678 ft 174 kts 293°
2026-04-19 07:37 44.83571 2.62610 4667 ft 165 kts 293°
2026-04-19 07:38 44.84010 2.61133 4670 ft 162 kts 293°
2026-04-19 07:38 44.84443 2.59672 4670 ft 160 kts 294°
2026-04-19 07:38 44.84871 2.58225 4661 ft 159 kts 293°
2026-04-19 07:38 44.85298 2.56793 4670 ft 159 kts 293°
2026-04-19 07:39 44.85726 2.55344 4674 ft 159 kts 293°
2026-04-19 07:39 44.86150 2.53902 4670 ft 160 kts 293°
2026-04-19 07:39 44.86581 2.52447 4669 ft 164 kts 293°
2026-04-19 07:39 44.87009 2.50904 4585 ft 176 kts 291°
2026-04-19 07:40 44.87369 2.49465 4173 ft 148 kts 289°
2026-04-19 07:40 44.87697 2.48122 3909 ft 147 kts 290°
2026-04-19 07:40 44.88045 2.46701 3852 ft 161 kts 290°
2026-04-19 07:40 44.88474 2.45173 3707 ft 171 kts 295°
2026-04-19 07:41 44.88927 2.43792 3504 ft 142 kts 295°
2026-04-19 07:41 44.89322 2.42550 3407 ft 132 kts 294°
2026-04-19 07:41 44.89498 2.41280 3165 ft 134 kts 262°
2026-04-19 07:41 44.89027 2.40278 3134 ft 116 kts 214°
2026-04-19 07:42 44.88294 2.39990 3012 ft 106 kts 173°
2026-04-19 07:42 44.87620 2.40312 3032 ft 104 kts 152°
2026-04-19 07:42 44.86995 2.40870 3064 ft 110 kts 143°
2026-04-19 07:42 44.86475 2.41618 3067 ft 106 kts 116°
2026-04-19 07:43 44.86429 2.42628 2965 ft 107 kts 71°
2026-04-19 07:43 44.86909 2.43361 2978 ft 107 kts 17°
2026-04-19 07:43 44.87650 2.43390 2448 ft 104 kts 339°
2026-04-19 07:43 44.88237 2.42904 2133 ft 99 kts 328°
2026-04-19 07:44 44.88782 2.42467 2065 ft 76 kts 331°
2026-04-19 07:44 44.89182 2.42143 2080 ft 60 kts 330°
2026-04-19 07:44 44.89524 2.41869 2089 ft 47 kts 328°
2026-04-19 07:44 44.89718 2.41704 2102 ft 18 kts 330°
2026-04-19 07:45 44.89790 2.41718 2102 ft 17 kts 54°
2026-04-19 07:45 44.89822 2.41799 2102 ft 6 kts 62°
2026-04-19 07:45 44.89838 2.41850 2102 ft 5 kts 108°
2026-04-19 07:45 44.89808 2.41878 2102 ft 5 kts 150°
2026-04-19 07:46 44.89780 2.41900 2102 ft 6 kts 150°
2026-04-19 07:46 44.89736 2.41938 2102 ft 3 kts 124°
2026-04-19 07:46 44.89750 2.42001 2102 ft 5 kts 63°
2026-04-19 07:46 44.89778 2.42019 2102 ft 8 kts 311°
2026-04-19 07:47 44.89788 2.42007 2102 ft 0 kts 329°